Dewpoint
42 43 43 42 42 42 43 44 44 44 45 46 47 47 47 47 46 45 44 44 46 46
38 38 39 39 40 41 41 42 42 42 43 44 45 46 46 46 46 45 44 44 44 46
37 38 38 38 37 37 38 39 38 39 40 41 42 43 44 45 46 46 45 44 44 45
36 37 37 36 36 36 37 36 37 38 38 39 40 41 41 41 43 44 45 45 44 43
36 36 35 35 35 36 36 37 37 37 37 37 38 38 39 39 40 41 41 43 44 44
34 34 35 35 36 36 37 37 37 37 37 37 38 38 37 38 38 39 40 41 42 43
33 34 34 35 35 36 36 36 36 36 37 37 37 37 38 38 38 39 39 40 41 42
33 34 34 34 34 35 35 35 35 35 35 36 36 36 38 39 39 39 39 39 40 41
33 33 33 33 33 34 34 34 34 34 34 35 35 40 42 42 39 38 38 38 39 41
33 33 33 33 33 33 33 33 33 33 33 34 34 39 42 43 39 38 38 38 39 40
33 33 33 33 33 33 33 33 33 33 33 33 33 39 41 41 38 36 36 37 37 38
33 33 33 33 33 33 33 33 33 34 34 34 34 39 41 39 36 36 36 36 36 36
31 30 30 31 32 33 33 33 35 35 35 36 36 37 41 39 37 35 36 36 37 39
30 30 29 29 30 31 32 34 35 36 36 35 35 34 40 41 37 37 37 37 37 37
Lifted_Index
12 12 12 12 12 12 12 13 12 12 12 11 11 11 10 10 10 10 10 10 11 11
12 12 12 12 12 13 13 13 13 13 13 12 12 11 11 10 10 10 10 10 11 11
12 12 12 13 13 14 14 14 14 14 14 13 13 13 12 11 11 11 11 11 11 11
12 13 13 14 14 14 14 14 14 14 14 14 14 13 13 12 12 12 12 11 11 11
13 13 14 14 14 15 14 14 14 14 14 14 13 13 13 13 13 12 12 12 12 12
13 13 14 14 14 14 14 14 14 14 14 14 13 13 13 13 13 12 12 12 12 12
13 13 14 14 14 14 14 14 14 14 14 14 13 13 13 13 13 13 12 12 12 12
13 13 14 14 14 14 14 14 14 14 14 14 13 13 13 13 13 12 12 12 12 12
13 13 14 14 14 14 14 14 14 14 14 14 14 14 13 13 13 12 12 12 12 12
13 13 13 14 14 14 13 13 13 13 14 14 14 14 14 13 13 13 12 12 12 11
12 12 13 13 13 13 13 13 13 13 13 13 13 13 13 13 13 13 12 12 12 12
12 12 12 12 12 12 12 12 12 12 12 12 12 12 13 13 13 12 12 12 12 12
12 12 12 12 11 12 12 12 12 12 11 11 11 11 12 12 12 12 12 11 11 11
11 11 11 11 11 11 12 12 12 12 11 11 11 11 11 12 12 12 11 11 11 11